星链-31469 (STARLINK-31469 )

导读 | 豆包AI

STARLINK-31469是美国太空探索技术公司(SpaceX)星链卫星互联网星座的一颗卫星,于2024年3月24日发射升空,属于星链星座扩容组网的组成部分。星链项目旨在通过低轨卫星星座实现全球覆盖的高速互联网服务,该卫星入轨后将参与星座运行,为全球用户提供卫星互联网接入服务。

Basic Information
目录编号:
59311
目录名称:
STARLINK-31469
国际标识:
2024-056R
轨道中心:
EARTH
卫星名称:
星链-31469
卫星全名:
星链-31469 (STARLINK-31469 )
卫星状态:
已陨落 最后检测时间 2024-06-13
发射日期:
2024-03-24 UTC
国别 :
美国 (US)
星等 :
--
Orbit Information
数据来源 国际轨道数据
星历时间: 2024-06-13T06:26:42+0800
轨道信息已过期686天
半长轴: 6563.375km
偏心率: 0.0006713
轨道倾角: 42.980°
近地点辐角 4.194°
升交点赤经 229.531°
平近点角 117.178°
近地点: 180.834km
远地点: 189.646km
周期: 88.196分钟
每日圈数: 16.327212
Detailed Information
固有亮度:
5
最大亮度:
0.3
卫星平台:
Starlink v2.0 mini
覆盖范围:
全球
运营商:
太空探索技术公司
运营商所在国:
美国
制造商(研发单位):
太空探索技术公司
制造商所在国:
美国
使用方式:
暂无
Satellite Introduction
星链(Starlink)计划是由太空探索技术公司(SpaceX)提出的一个巨型低轨卫星互联网星座项目,计划在2019年至2024年间在太空搭建由约1.2万颗卫星组成的“星链”网络,其中1584颗将部署在地球上空550千米处的近地轨道,并从2020年开始工作。该卫星已陨落。